Location: Passau
(48.5830°N, 13.4830°E)
Time: 19:19:27
(UTC+02:00)

Envisat - Pass Details

Date: 19 April 2024
Orbit: 762 x 764 km, 98.3° (Epoch: 29 May)

Event Time Altitude Azimuth Distance (km) Brightness Sun altitude
Rises 03:14:59 0° 27° (NNE) 3,240 7.7 -23.6°
Reaches altitude 10° 03:18:03 10° 47° (NE) 2,307 6.5 -23.3°
Maximum altitude 03:21:28 18° 89° (E) 1,812 5.3 -23.0°
Drops below altitude 10° 03:24:52 10° 132° (SE) 2,295 5.4 -22.6°
Enters shadow 03:26:25 - 143° (SE) 2,736 5.7 -22.5°
